Weather History for Sanford, ME

Change the Weather History Date:

Monday, March 31, 2014

  Actual Average Record
Temperature  
Mean Temperature 36 °F -  
Max Temperature 41 °F 46 °F 87 °F (1998)
Min Temperature 32 °F 28 °F 19 °F (2013)
Degree Days  
Heating Degree Days 28    
Moisture  
Dew Point 27 °F    
Average Humidity 70    
Maximum Humidity 87    
Minimum Humidity 53    
Precipitation  
Precipitation 0.40 in - - ()
Sea Level Pressure  
Sea Level Pressure 29.84 in    
Wind  
Wind Speed 17 mph (North)    
Max Wind Speed 23 mph    
Max Gust Speed 32 mph    
Visibility 9 miles    
Events      
Averages and records for this station are not official NWS values.
T = Trace of Precipitation, MM = Missing Value Source: NWS Daily Summary

Daily Weather History Graph

Daily Weather History Graph

Search for Another Location

Airport:

Trip Planner

Search our weather history database for the weather conditions in past years. The results will help you decide how hot, cold, wet, or windy it might be!

Date:

Astronomy

Mar. 31, 2014 Rise Set
Actual Time 6:26 AM EDT 7:08 PM EDT
Civil Twilight 5:57 AM EDT 7:37 PM EDT
Nautical Twilight 5:23 AM EDT 8:11 PM EDT
Astronomical Twilight 4:48 AM EDT 8:46 PM EDT
Moon 6:46 AM EDT (3/31) 8:26 PM EDT (3/31)
Length of Visible Light 13h 39m
Length of Day
12h 41m
New Moon, 1% of the Moon is Illuminated
Mar 31
New Moon
Apr 7
First Quarter
Apr 15
Full
Apr 22
Last Quarter
Apr 29
New

Hourly Weather History & Observations

Time (EDT) Temp. Windchill Dew Point Humidity Pressure Visibility Wind Dir Wind Speed Gust Speed Precip Events Conditions
12:15 AM 33.8 °F 23.2 °F 26.6 °F 75% 29.74 in 10.0 mi NNE 17.3 mph 26.5 mph N/A   Overcast
12:35 AM 33.8 °F 22.5 °F 26.6 °F 75% 29.73 in 10.0 mi North 19.6 mph 29.9 mph N/A   Overcast
12:55 AM 33.8 °F 22.5 °F 28.4 °F 81% 29.72 in 10.0 mi North 19.6 mph 27.6 mph N/A   Overcast
1:15 AM 33.8 °F 22.8 °F 26.6 °F 75% 29.71 in 10.0 mi North 18.4 mph 32.2 mph N/A   Overcast
1:35 AM 33.8 °F 22.2 °F 28.4 °F 81% 29.71 in 10.0 mi North 20.7 mph 29.9 mph 0.01 in   Overcast
1:55 AM 33.8 °F 23.5 °F 26.6 °F 75% 29.71 in 4.0 mi North 16.1 mph 25.3 mph 0.02 in   Overcast
2:15 AM 33.8 °F 22.5 °F 28.4 °F 81% 29.71 in 9.0 mi North 19.6 mph 27.6 mph N/A   Overcast
2:35 AM 33.8 °F 21.6 °F 28.4 °F 81% 29.70 in 10.0 mi North 23.0 mph 31.1 mph 0.01 in   Overcast
2:55 AM 33.8 °F 22.5 °F 26.6 °F 75% 29.71 in 10.0 mi North 19.6 mph 26.5 mph 0.01 in   Overcast
3:15 AM 33.8 °F 22.8 °F 26.6 °F 75% 29.72 in 10.0 mi North 18.4 mph 28.8 mph 0.01 in   Overcast
3:35 AM 33.8 °F 24.8 °F 26.6 °F 75% 29.73 in 10.0 mi North 12.7 mph 21.9 mph 0.01 in   Overcast
3:55 AM 33.8 °F 23.2 °F 26.6 °F 75% 29.74 in 10.0 mi North 17.3 mph 21.9 mph 0.02 in   Overcast
4:15 AM 33.8 °F 22.5 °F 26.6 °F 75% 29.74 in 10.0 mi North 19.6 mph 26.5 mph 0.01 in   Overcast
4:35 AM 32.0 °F 20.5 °F 26.6 °F 80% 29.74 in 5.0 mi North 18.4 mph 24.2 mph 0.07 in   Overcast
4:55 AM 32.0 °F 22.1 °F 26.6 °F 80% 29.74 in 10.0 mi North 13.8 mph - 0.09 in   Overcast
5:15 AM 32.0 °F 20.5 °F 28.4 °F 87% 29.75 in 10.0 mi North 18.4 mph - 0.03 in   Overcast
5:35 AM 32.0 °F 20.8 °F 26.6 °F 80% 29.75 in 10.0 mi North 17.3 mph 24.2 mph 0.03 in   Overcast
5:55 AM 32.0 °F 21.2 °F 26.6 °F 80% 29.76 in 10.0 mi NNE 16.1 mph 21.9 mph 0.04 in   Overcast
6:15 AM 32.0 °F 21.2 °F 28.4 °F 87% 29.76 in 10.0 mi North 16.1 mph 21.9 mph N/A   Overcast
6:35 AM 33.8 °F 24.3 °F 26.6 °F 75% 29.77 in 10.0 mi North 13.8 mph 20.7 mph N/A   Overcast
6:55 AM 32.0 °F 22.5 °F 26.6 °F 80% 29.78 in 3.0 mi North 12.7 mph 16.1 mph N/A   Overcast
7:15 AM 32.0 °F 22.5 °F 28.4 °F 87% 29.80 in 2.0 mi North 12.7 mph - 0.01 in   Overcast
7:35 AM 32.0 °F 21.2 °F 28.4 °F 87% 29.80 in 1.8 mi North 16.1 mph 19.6 mph 0.01 in   Overcast
7:55 AM 32.0 °F 22.1 °F 26.6 °F 80% 29.81 in 0.5 mi North 13.8 mph 20.7 mph 0.01 in   Overcast
8:15 AM 32.0 °F 20.1 °F 26.6 °F 80% 29.81 in 1.5 mi North 19.6 mph 26.5 mph N/A   Overcast
8:35 AM 32.0 °F 20.8 °F 28.4 °F 87% 29.82 in 3.0 mi North 17.3 mph 24.2 mph N/A   Mostly Cloudy
8:55 AM 32.0 °F 21.2 °F 26.6 °F 80% 29.82 in 5.0 mi North 16.1 mph 23.0 mph N/A   Overcast
9:15 AM 32.0 °F 21.6 °F 26.6 °F 80% 29.82 in 9.0 mi North 15.0 mph - N/A   Overcast
9:35 AM 33.8 °F 25.3 °F 28.4 °F 81% 29.83 in 10.0 mi North 11.5 mph 25.3 mph N/A   Overcast
9:55 AM 33.8 °F 23.9 °F 26.6 °F 75% 29.83 in 10.0 mi North 15.0 mph 20.7 mph 0.01 in   Overcast
10:15 AM 33.8 °F 23.2 °F 26.6 °F 75% 29.82 in 10.0 mi North 17.3 mph 20.7 mph 0.01 in   Overcast
10:35 AM 33.8 °F 23.9 °F 28.4 °F 81% 29.83 in 10.0 mi North 15.0 mph - 0.03 in   Overcast
10:55 AM 33.8 °F 25.3 °F 26.6 °F 75% 29.83 in 8.0 mi North 11.5 mph - 0.04 in   Overcast
11:15 AM 33.8 °F 26.4 °F 26.6 °F 75% 29.84 in 9.0 mi North 9.2 mph - 0.02 in   Overcast
11:35 AM 33.8 °F 24.8 °F 26.6 °F 75% 29.84 in 5.0 mi NNE 12.7 mph - 0.04 in   Overcast
11:55 AM 33.8 °F 27.0 °F 30.2 °F 87% 29.83 in 9.0 mi North 8.1 mph - 0.08 in   Overcast
12:15 PM 35.6 °F 28.6 °F 28.4 °F 75% 29.82 in 10.0 mi North 9.2 mph - 0.04 in   Overcast
12:35 PM 37.4 °F 27.5 °F 28.4 °F 70% 29.82 in 10.0 mi North 18.4 mph 23.0 mph 0.07 in   Overcast
12:55 PM 37.4 °F 28.2 °F 28.4 °F 70% 29.82 in 10.0 mi North 16.1 mph 21.9 mph 0.08 in   Overcast
1:15 PM 37.4 °F 27.8 °F 30.2 °F 75% 29.82 in 10.0 mi North 17.3 mph 21.9 mph N/A   Overcast
1:35 PM 39.2 °F 31.2 °F 28.4 °F 65% 29.82 in 10.0 mi North 13.8 mph 26.5 mph N/A   Overcast
1:55 PM 39.2 °F 29.6 °F 24.8 °F 56% 29.83 in 10.0 mi North 19.6 mph 26.5 mph N/A   Overcast
2:15 PM 39.2 °F 30.5 °F 26.6 °F 61% 29.84 in 10.0 mi North 16.1 mph 26.5 mph N/A   Overcast
2:35 PM 39.2 °F 29.6 °F 24.8 °F 56% 29.85 in 10.0 mi North 19.6 mph - N/A   Overcast
2:55 PM 39.2 °F 30.8 °F 26.6 °F 61% 29.86 in 10.0 mi NNE 15.0 mph 19.6 mph N/A   Overcast
3:15 PM 39.2 °F 29.8 °F 28.4 °F 65% 29.85 in 10.0 mi NNW 18.4 mph 27.6 mph N/A   Overcast
3:35 PM 41.0 °F 31.6 °F 24.8 °F 53% 29.85 in 10.0 mi North 20.7 mph 26.5 mph N/A   Overcast
3:55 PM 39.2 °F 29.3 °F 24.8 °F 56% 29.86 in 10.0 mi North 20.7 mph 31.1 mph N/A   Overcast
4:15 PM 39.2 °F 29.0 °F 24.8 °F 56% 29.87 in 10.0 mi NNE 21.9 mph 31.1 mph N/A   Overcast
4:35 PM 39.2 °F 29.8 °F 24.8 °F 56% 29.88 in 10.0 mi NNE 18.4 mph 26.5 mph N/A   Overcast
4:55 PM 39.2 °F 30.8 °F 24.8 °F 56% 29.89 in 10.0 mi North 15.0 mph 24.2 mph N/A   Overcast
5:15 PM 39.2 °F 32.0 °F 28.4 °F 65% 29.90 in 10.0 mi North 11.5 mph 23.0 mph N/A   Overcast
5:35 PM 39.2 °F 29.8 °F 26.6 °F 61% 29.90 in 10.0 mi North 18.4 mph 27.6 mph N/A   Overcast
5:55 PM 39.2 °F 30.5 °F 24.8 °F 56% 29.90 in 10.0 mi North 16.1 mph 26.5 mph N/A   Overcast
6:15 PM 39.2 °F 30.8 °F 24.8 °F 56% 29.92 in 10.0 mi North 15.0 mph 28.8 mph N/A   Overcast
6:35 PM 37.4 °F 28.5 °F 26.6 °F 65% 29.92 in 10.0 mi North 15.0 mph 23.0 mph N/A   Overcast
6:55 PM 37.4 °F 29.3 °F 26.6 °F 65% 29.93 in 10.0 mi North 12.7 mph 17.3 mph N/A   Overcast
7:15 PM 37.4 °F 28.9 °F 24.8 °F 60% 29.94 in 10.0 mi North 13.8 mph 20.7 mph N/A   Overcast
7:35 PM 37.4 °F 27.2 °F 24.8 °F 60% 29.94 in 10.0 mi North 19.6 mph 24.2 mph N/A   Overcast
7:55 PM 37.4 °F 27.2 °F 26.6 °F 65% 29.95 in 10.0 mi North 19.6 mph 25.3 mph N/A   Overcast
8:15 PM 37.4 °F 29.8 °F 26.6 °F 65% 29.97 in 10.0 mi North 11.5 mph 21.9 mph N/A   Overcast
8:35 PM 37.4 °F 29.3 °F 24.8 °F 60% 29.97 in 10.0 mi NNW 12.7 mph 20.7 mph N/A   Overcast
8:55 PM 37.4 °F 29.3 °F 24.8 °F 60% 29.98 in 10.0 mi North 12.7 mph 23.0 mph N/A   Overcast
9:15 PM 37.4 °F 28.5 °F 24.8 °F 60% 29.98 in 10.0 mi North 15.0 mph 23.0 mph N/A   Overcast
9:35 PM 37.4 °F 28.2 °F 24.8 °F 60% 29.98 in 10.0 mi North 16.1 mph 20.7 mph N/A   Overcast
9:55 PM 37.4 °F 29.8 °F 24.8 °F 60% 29.99 in 10.0 mi North 11.5 mph 19.6 mph N/A   Overcast
10:15 PM 37.4 °F 30.3 °F 24.8 °F 60% 29.99 in 10.0 mi North 10.4 mph 16.1 mph N/A   Overcast
10:35 PM 37.4 °F 30.3 °F 24.8 °F 60% 30.00 in 10.0 mi NNW 10.4 mph - N/A   Overcast
10:55 PM 35.6 °F 28.0 °F 24.8 °F 65% 29.99 in 10.0 mi NNW 10.4 mph - N/A   Overcast
11:15 PM 35.6 °F 27.5 °F 23.0 °F 60% 30.00 in 10.0 mi NNW 11.5 mph - N/A   Overcast
11:35 PM 35.6 °F 25.9 °F 24.8 °F 65% 30.00 in 10.0 mi North 16.1 mph 19.6 mph N/A   Overcast
11:55 PM 35.6 °F 27.1 °F 23.0 °F 60% 30.00 in 10.0 mi North 12.7 mph 18.4 mph N/A   Overcast